[[{"header":{"parameterUnit":"m.s-1","parameterCategory":1,"la1":30.2991,"la2":30.254,"lo1":-89.0895,"lo2":-89.0444,"dy":0.0017,"dx":0.0017,"nx":28,"ny":28,"refTime":"2025-03-30T21:00:00:Z","depth":0,"parameterNumber":2,"parameterNumberName":"U-component_of_WINDS"},"data":[0,0,0,0,0,0,0,0,0,0,0,0,0,0,0,0,0,0,0,0,0,0,0,0,0,0,0,0,0,0,0,0,0,0,0,0,0,0,0,0,0,0,0,0,0,0,0,0,0,0,0,0,0,0,0,0,0,0,-2.5774,-2.5774,0,-2.5756,-2.5756,-2.5756,-2.5718,-2.5717,-2.5716,-2.5715,-2.5698,-2.5698,-2.5699,0,0,0,0,0,0,0,0,0,0,0,0,0,-2.5776,-2.5776,-2.5774,-2.5774,-2.5774,-2.5757,-2.5756,-2.5756,-2.5718,-2.5717,-2.5716,-2.5715,-2.5698,-2.5698,-2.5699,0,0,0,0,0,0,0,0,0,0,0,0,0,-2.5769,-2.5776,-2.5774,-2.5753,-2.575,-2.5757,-2.5756,-2.5756,-2.5718,-2.5717,-2.5716,-2.5715,-2.5698,-2.5698,-2.5699,-2.5724,0,0,-2.57,-2.57,0,0,0,0,0,0,0,0,-2.5769,-2.5769,-2.5756,-2.5754,-2.5752,-2.5738,-2.5751,-2.5745,-2.5718,-2.573,-2.5715,-2.5714,-2.5712,-2.5711,-2.5711,-2.5724,-2.5723,-2.57,-2.57,-2.57,-2.57,0,0,0,0,0,0,0,-2.577,-2.5769,-2.5767,-2.5756,-2.5753,-2.5744,-2.5742,-2.5749,-2.5728,-2.5729,-2.5726,-2.5725,-2.5711,-2.571,-2.571,-2.5723,-2.57,-2.57,-2.57,-2.5701,-2.5756,-2.5757,0,0,0,0,0,0,-2.5773,-2.577,-2.5768,-2.5767,-2.5758,-2.5745,-2.5742,-2.5744,-2.5728,-2.5724,-2.5726,-2.5723,-2.571,-2.571,-2.5709,-2.5738,-2.57,-2.5701,-2.5701,-2.5755,-2.5756,-2.5757,0,0,0,0,0,0,-2.5773,-2.5773,-2.5768,-2.5767,-2.5766,-2.5746,-2.5748,-2.5744,-2.5743,-2.5725,-2.5722,-2.5729,-2.5709,-2.5709,-2.5721,-2.5737,-2.5701,-2.5701,-2.5753,-2.5755,-2.5757,-2.5796,0,0,0,0,0,0,-2.5774,-2.5774,-2.5783,-2.5768,-2.5766,-2.578,-2.5749,-2.5744,-2.5744,-2.574,-2.5727,-2.5724,-2.5708,-2.5721,-2.5721,-2.5737,-2.5701,-2.5752,-2.5754,-2.5756,-2.5793,-2.5798,-2.5803,0,0,0,0,0,-2.5774,-2.5795,-2.5783,-2.5783,-2.5777,-2.5781,-2.578,-2.5761,-2.5745,-2.5755,-2.5743,-2.5725,-2.5735,-2.5722,-2.5723,-2.5738,-2.5751,-2.5753,-2.5756,-2.579,-2.5797,-2.5803,0,0,0,0,0,0,-2.5812,-2.5792,-2.578,-2.5796,-2.5791,-2.5774,-2.5785,-2.5769,-2.5768,-2.5765,-2.5742,-2.5739,-2.5755,-2.5748,-2.5734,-2.5763,-2.574,-2.5743,-2.5766,-2.5772,-2.5778,-2.5778,-2.5702,0,0,0,0,0,-2.5822,-2.5826,-2.5809,-2.5826,-2.5823,-2.5805,-2.5806,-2.5792,-2.5785,-2.5783,-2.5772,-2.5767,-2.5769,-2.5771,-2.5772,-2.5792,-2.5789,-2.5804,-2.5809,-2.5813,-2.5816,-2.5826,-2.5832,-2.5767,-2.5767,-2.5767,0,0,-2.5843,-2.5833,-2.5837,-2.5833,-2.5827,-2.5832,-2.5803,-2.581,-2.5813,-2.5784,-2.5794,-2.5787,-2.5779,-2.5796,-2.5802,-2.5791,-2.5833,-2.5817,-2.5821,-2.582,-2.5829,-2.5835,-2.5841,-2.5768,-2.5768,-2.5768,0,0,-2.5884,-2.5878,-2.589,-2.5885,-2.5876,-2.5864,-2.5867,-2.5854,-2.5847,-2.5858,-2.5836,-2.584,-2.5844,-2.584,-2.5838,-2.5879,-2.5861,-2.588,-2.5907,-2.5917,-2.5922,-2.5927,-2.594,-2.5945,-2.5883,-2.5883,-2.5883,0,-2.5912,-2.5918,-2.5898,-2.5906,-2.5905,-2.5879,-2.5892,-2.5888,-2.588,-2.588,-2.5867,-2.5872,-2.5865,-2.588,-2.589,-2.589,-2.5892,-2.588,-2.5923,-2.5927,-2.5931,-2.5944,-2.5949,-2.5885,-2.5885,-2.5884,-2.5884,0,-2.5952,-2.5956,-2.5968,-2.5961,-2.5961,-2.5971,-2.5954,-2.5957,-2.5944,-2.5933,-2.5944,-2.5935,-2.5934,-2.5937,-2.5924,-2.595,-2.5943,-2.5927,-2.5903,-2.594,-2.5951,-2.5956,-2.5888,-2.5887,-2.5887,-2.5886,0,0,-2.6014,-2.5997,-2.6001,-2.5997,-2.5987,-2.599,-2.6,-2.5998,-2.6001,-2.5997,-2.6004,-2.6009,-2.5995,-2.5993,-2.598,-2.5989,-2.6021,-2.5972,-2.5971,-2.598,-2.6048,-2.6058,-2.6064,-2.601,-2.6011,-2.6012,-2.6048,0,-2.6051,-2.6065,-2.6048,-2.6066,-2.6071,-2.6047,-2.6056,-2.605,-2.6041,-2.6044,-2.6034,-2.6037,-2.6019,-2.6017,-2.6025,-2.6015,-2.6034,-2.6012,-2.6016,-2.6016,-2.6016,-2.607,-2.6081,-2.6116,-2.6052,-2.6053,-2.6054,0,-2.6095,-2.6093,-2.6111,-2.61,-2.6101,-2.6109,-2.6106,-2.6109,-2.6103,-2.6096,-2.6094,-2.6079,-2.6088,-2.6067,-2.6078,-2.6064,-2.6065,-2.6061,-2.6062,-2.6059,-2.6035,-2.6068,-2.6126,-2.6131,-2.6061,-2.606,-2.606,0,-2.6137,-2.6139,-2.615,-2.6148,-2.6135,-2.6141,-2.6136,-2.6129,-2.6129,-2.6127,-2.6127,-2.6127,-2.6127,-2.6127,-2.6112,-2.6098,-2.6125,-2.6103,-2.6119,-2.6119,-2.6124,-2.6124,-2.6182,-2.6128,-2.6128,-2.6128,-2.6128,0,-2.6178,-2.619,-2.6168,-2.6175,-2.6188,-2.617,-2.6183,-2.6176,-2.617,-2.6175,-2.6156,-2.6161,-2.6141,-2.6145,-2.6134,-2.6145,-2.6145,-2.6139,-2.6136,-2.614,-2.614,-2.6138,-2.6135,-2.6129,-2.6129,-2.6129,-2.6128,0,-2.6226,-2.6212,-2.6222,-2.621,-2.6207,-2.6217,-2.6206,-2.6212,-2.6202,-2.6209,-2.621,-2.6195,-2.6198,-2.6183,-2.6184,-2.6177,-2.6193,-2.6186,-2.6195,-2.6192,-2.6208,-2.6206,-2.6265,-2.6272,-2.6216,-2.6216,-2.6217,0,-2.6252,-2.6261,-2.6249,-2.6251,-2.6247,-2.6251,-2.6251,-2.6234,-2.6235,-2.6229,-2.6236,-2.6238,-2.6238,-2.6244,-2.6233,-2.6234,-2.6226,-2.6247,-2.6226,-2.6229,-2.6224,-2.6223,-2.6224,-2.625,-2.6251,-2.6252,-2.6252,0,-2.6301,-2.6294,-2.6294,-2.6293,-2.6294,-2.6293,-2.629,-2.6293,-2.6274,-2.6277,-2.628,-2.628,-2.6281,-2.6282,-2.6281,-2.6276,-2.6261,-2.6259,-2.6263,-2.6266,-2.627,-2.6266,-2.6205,-2.6257,-2.6257,-2.6256,-2.6256,-2.6256,-2.6337,-2.6344,-2.6336,-2.6338,-2.6335,-2.6332,-2.6337,-2.6329,-2.633,-2.6329,-2.632,-2.6325,-2.6319,-2.6315,-2.6312,-2.6316,-2.6306,-2.6311,-2.6312,-2.6314,-2.6316,-2.6271,-2.6316,-2.6316,-2.6316,-2.6316,-2.6315,0,-2.6383,-2.6378,-2.638,-2.6376,-2.6378,-2.6364,-2.6361,-2.6363,-2.6367,-2.6363,-2.6364,-2.6367,-2.6369,-2.6359,-2.636,-2.6364,-2.6357,-2.6365,-2.6363,-2.6362,-2.6325,-2.6321,-2.6371,-2.637,-2.637,-2.637,-2.637,-2.637,-2.6407,-2.6417,-2.6409,-2.6417,-2.6412,-2.6416,-2.6415,-2.6413,-2.6409,-2.6414,-2.6415,-2.6409,-2.6403,-2.6403,-2.6404,-2.6401,-2.6401,-2.6411,-2.6406,-2.6371,-2.6365,-2.636,-2.6356,-2.6412,-2.6412,-2.6442,-2.6443,-2.6443]},{"header":{"parameterUnit":"m.s-1","parameterCategory":1,"la1":30.2991,"la2":30.254,"lo1":-89.0895,"lo2":-89.0444,"dy":0.0017,"dx":0.0017,"nx":28,"ny":28,"refTime":"2025-03-30T21:00:00:Z","depth":0,"parameterNumber":3,"parameterNumberName":"V-component_of_WINDS"},"data":[0,0,0,0,0,0,0,0,0,0,0,0,0,0,0,0,0,0,0,0,0,0,0,0,0,0,0,0,0,0,0,0,0,0,0,0,0,0,0,0,0,0,0,0,0,0,0,0,0,0,0,0,0,0,0,0,0,0,2.6258,2.6258,0,2.6288,2.6288,2.6288,2.6284,2.6283,2.6283,2.6282,2.631,2.6311,2.6312,0,0,0,0,0,0,0,0,0,0,0,0,0,2.6195,2.6196,2.6258,2.6258,2.6258,2.6288,2.6288,2.6288,2.6284,2.6283,2.6283,2.6282,2.6309,2.6311,2.6312,0,0,0,0,0,0,0,0,0,0,0,0,0,2.6223,2.6196,2.6258,2.626,2.626,2.6288,2.6288,2.6289,2.6284,2.6283,2.6283,2.6282,2.6309,2.6311,2.6312,2.6338,0,0,2.6318,2.6319,0,0,0,0,0,0,0,0,2.6221,2.6225,2.6259,2.626,2.626,2.6281,2.6276,2.6305,2.6284,2.6275,2.6282,2.6282,2.6301,2.6303,2.631,2.634,2.6341,2.6318,2.6319,2.632,2.632,0,0,0,0,0,0,0,2.6219,2.6224,2.6269,2.626,2.626,2.6259,2.6262,2.6281,2.6291,2.6276,2.6275,2.6279,2.6301,2.6309,2.6311,2.6341,2.6318,2.632,2.6321,2.6321,2.6397,2.6397,0,0,0,0,0,0,2.6217,2.6222,2.6268,2.627,2.6239,2.626,2.6264,2.6275,2.6291,2.6293,2.628,2.6279,2.6306,2.6309,2.6312,2.6346,2.632,2.6322,2.6323,2.6396,2.6397,2.6398,0,0,0,0,0,0,2.6216,2.6221,2.6267,2.6246,2.6252,2.6262,2.6275,2.6276,2.6284,2.6295,2.6296,2.6286,2.6305,2.6309,2.6333,2.6347,2.6322,2.6324,2.6395,2.6396,2.6397,2.6413,0,0,0,0,0,0,2.6214,2.6221,2.6231,2.6247,2.6253,2.6288,2.6276,2.6277,2.6288,2.6287,2.6301,2.6302,2.6305,2.633,2.6335,2.6349,2.6325,2.6393,2.6395,2.6397,2.6411,2.6414,2.6417,0,0,0,0,0,2.6212,2.6233,2.6232,2.6237,2.6266,2.6289,2.6293,2.6297,2.6289,2.6299,2.6306,2.6302,2.6344,2.6333,2.6338,2.6352,2.6393,2.6395,2.6397,2.641,2.6414,2.6417,0,0,0,0,0,0,2.6216,2.6235,2.6234,2.626,2.6274,2.6288,2.6301,2.63,2.6315,2.6313,2.6316,2.6319,2.6344,2.635,2.6337,2.638,2.6367,2.637,2.6375,2.6379,2.6382,2.6381,2.6327,0,0,0,0,0,2.6221,2.6239,2.6253,2.6275,2.6282,2.6291,2.6301,2.6303,2.6316,2.6321,2.633,2.6342,2.6358,2.6369,2.6384,2.6411,2.6416,2.6424,2.6427,2.643,2.6433,2.6451,2.6455,2.6405,2.6405,2.6405,0,0,2.623,2.6242,2.6252,2.6277,2.6287,2.6306,2.6295,2.6314,2.6328,2.6323,2.6348,2.6354,2.6368,2.6395,2.6406,2.64,2.6448,2.6432,2.6434,2.6436,2.6453,2.6458,2.6462,2.6406,2.6406,2.6406,0,0,2.6256,2.6266,2.6287,2.6299,2.6315,2.6321,2.6326,2.6342,2.6347,2.6371,2.6369,2.6385,2.6412,2.6423,2.6432,2.6465,2.6463,2.647,2.6487,2.6504,2.6508,2.6512,2.6526,2.6531,2.6473,2.6473,2.6473,0,2.6264,2.6293,2.6298,2.6319,2.633,2.6328,2.635,2.636,2.6381,2.6389,2.6382,2.6418,2.6427,2.6457,2.6466,2.6472,2.6479,2.6469,2.6507,2.6511,2.6515,2.6528,2.6533,2.6474,2.6474,2.6473,2.6473,0,2.6304,2.6324,2.6339,2.6361,2.6374,2.6395,2.6403,2.6415,2.6417,2.6424,2.6449,2.646,2.6479,2.6486,2.6486,2.6517,2.6513,2.6507,2.6495,2.652,2.6533,2.6538,2.6475,2.6475,2.6474,2.6474,0,0,2.6333,2.636,2.6366,2.6377,2.6397,2.6412,2.6433,2.6453,2.6465,2.6479,2.6498,2.6522,2.6518,2.6528,2.6529,2.6544,2.6573,2.6536,2.6537,2.6545,2.6611,2.6618,2.6623,2.6571,2.6572,2.6573,2.6611,0,2.6363,2.6403,2.6409,2.6443,2.6463,2.6463,2.6482,2.6496,2.6503,2.652,2.6528,2.6546,2.6537,2.6544,2.6558,2.6567,2.6587,2.6564,2.659,2.659,2.6589,2.663,2.6636,2.6671,2.6615,2.6616,2.6617,0,2.6402,2.6421,2.6459,2.6479,2.6487,2.6504,2.6525,2.6541,2.6557,2.6562,2.6575,2.6575,2.6598,2.6584,2.6616,2.66,2.6611,2.6617,2.6618,2.6622,2.6607,2.6637,2.6682,2.6689,2.6624,2.6624,2.6623,0,2.6423,2.6457,2.6485,2.6494,2.6517,2.653,2.654,2.6555,2.6568,2.6586,2.6594,2.6613,2.6624,2.6639,2.6645,2.6634,2.6678,2.6663,2.6683,2.6683,2.6693,2.6693,2.6743,2.6696,2.6696,2.6696,2.6696,0,2.6457,2.648,2.6495,2.6512,2.6539,2.6546,2.6572,2.6581,2.6596,2.6615,2.6615,2.6633,2.6638,2.6657,2.6662,2.6689,2.6693,2.6698,2.6699,2.6699,2.6699,2.6708,2.6706,2.6698,2.6697,2.6697,2.6697,0,2.6485,2.6495,2.6526,2.6547,2.6552,2.6572,2.6589,2.6606,2.6614,2.6638,2.6644,2.6656,2.6679,2.6686,2.6712,2.6715,2.6748,2.6746,2.6744,2.6744,2.6765,2.6764,2.6824,2.6833,2.6778,2.6779,2.6779,0,2.6506,2.6525,2.6549,2.6563,2.6574,2.6596,2.661,2.6617,2.6632,2.6654,2.6669,2.6691,2.671,2.6746,2.6757,2.6778,2.6778,2.6797,2.6781,2.6781,2.6781,2.6781,2.6784,2.6801,2.6802,2.6802,2.6802,0,2.6545,2.655,2.6571,2.6595,2.6613,2.6631,2.6649,2.666,2.667,2.6687,2.6711,2.6726,2.6755,2.6778,2.68,2.681,2.6809,2.6808,2.6814,2.6815,2.6814,2.6818,2.6755,2.6806,2.6806,2.6806,2.6805,2.6805,2.6572,2.659,2.6611,2.6635,2.665,2.6667,2.6686,2.6697,2.6718,2.6744,2.6746,2.6773,2.6791,2.6821,2.6832,2.6853,2.6847,2.6855,2.6858,2.686,2.6863,2.6809,2.6856,2.6856,2.6856,2.6856,2.6856,0,2.6612,2.6626,2.6649,2.6676,2.6696,2.6694,2.6715,2.6731,2.6755,2.6773,2.6793,2.6822,2.6845,2.6859,2.6882,2.6897,2.6897,2.6903,2.6903,2.6906,2.6866,2.6859,2.6903,2.6903,2.6903,2.6903,2.6903,2.6902,2.6636,2.6668,2.6676,2.6715,2.6729,2.6757,2.6769,2.6786,2.68,2.6834,2.6854,2.6864,2.688,2.6905,2.6927,2.693,2.694,2.6947,2.695,2.6913,2.6908,2.6904,2.6898,2.6948,2.6949,2.6989,2.6989,2.699]}]]